STARLINK-31845, 60129

Orbit data source: Space-Track

STARLINK-31845, 60129 is a payload satellite owned by SpaceX/Seattle (US) in LEO that was launched on Mon, 24 Jun 2024 UTC via an FALCON 9 launch vehicle from the Air Force Western Test Range (AFWTR). Payload-class satellites include a variety of spacecraft equipped with specific instruments for various scientific and technological missions. These include communications satellites like Starlink; space stations such as the ISS; scientific satellites like the Hubble; Earth observation satellites from companies like Planet Labs, Umbra, and HawkEye 360; GPS; miniature CubeSats for education and research; and military/defense satellites.

Loading next visibility...
Identifier
60129, 2024-118S
Orbit
LEO
Country
Flag of USUS
Related business
Manufacturer
SpaceX/Seattle
Mission
Operational Commercial Communications
Bus & Motor
STARLINK V2M, Unknown motor
Mass
730 kg wet, ~700 kg dry
Launch date (UTC)
2024-06-24 (2 years ago)
Launch vehicle
FALCON 9
Launch site
Air Force Western Test Range (AFWTR)
Object type
Payload
Rocket body
Debris
Shape & HBR
Box + 2 Pan, 17.7 m
Radar Cross Section
33.884 m², Large (>1 m²)

Expand to show TLE details & history
Last TLE update: 17 hours ago

TLE from 17 hours ago
0 STARLINK-31845
1 60129U 24118S   26034.83650311 -.00001136  00000-0 -26254-4 0  9992
2 60129  53.1587 181.8028 0001070  85.4653 274.6470 15.30191789 90548
Epoch: 2026-02-03T20:04Z
TLE epoch observation values (Epoch: 2026-02-03T20:04:33.868Z)
Latitude
-0.00003°
Longitude
106.64994°
Altitude
476.08 km
Speed
7.629 km/s
True Right ascension
12h 07m 12s
True Declination
0° 00' 00"
Sunlit
Object was in full shadow at epoch
Visualization orbit readout
Latitude
Unknown
Longitude
Unknown
Altitude
Unknown
Speed
Unknown
Apparent Right ascension
Unknown
Apparent Declination
Unknown
Sunlit
N/A
Visualization observer readout
Local Sidereal Time
15:28:37
Azimuth
Unknown
Elevation
Unknown
Doppler factor
Unknown
Orbital elements
Apogee altitude
476.23 km
Perigee altitude
474.763 km
Semi-major axis
6,853.633 km
Eccentricity
0.00011
Inclination
53.1587°
RAAN
181.8028°
Arg. of periapsis
85.4653°
True anomaly
274.63478°
Mean anomaly
274.647°
Eccentric anomaly
274.64089°
Mean motion
3.82527 °/min
Orbital period
94.11 mins
BSTAR
-0.000026254
Loading maneuver chart data...
Computing Atmospheric mass density...
Loading historical data...
Loading historical data...
Loading historical data...
Loading historical data...
Loading historical data...
Loading historical data...
Loading historical data...

Documentation

Showing up to 5 results
|